Tracking 35275 objects as of 9-Sep-2026
HD Live streaming from Space Station
objects crossing your sky now

STARLINK-34006

Track STARLINK-34006 now!
10-day predictions
STARLINK-34006 is classified as:


NORAD ID: 63869
Int'l Code: 2025-094F
Launch date: May 10, 2025
Source: United States (US)
Launch site: AIR FORCE WESTERN TEST RANGE (AFWTR)
Your satellite tracking list
Your tracking list is empty




NASA's NSSDC Master Catalog

Two Line Element Set (TLE):
1 63869U 25094F   26251.58335648  .00095683  00000-0  33031-2 0  9993
2 63869  69.9994 132.4771 0002903 267.3072 330.7445 15.29457977  5676
Source of the keplerian elements: AFSPC